DW2227 Weather Reports


Display with metric or nautical units.
time (UTC)temp
F
wind
direction
speed
MPH
gust
MPH
rain 1hr
in
rain 24hr
in
rain mn
in
humidity
%
barometer
mb
20260906143827 73 119 1.0 3.0 0.00 0.00 0.00 87 1019.0
20260906143342 73 131 0.0 3.0 0.00 0.00 0.00 87 1019.0
20260906142817 73 182 1.0 3.0 0.00 0.00 0.00 87 1019.1
20260906142352 72 126 0.0 1.0 0.00 0.00 0.00 87 1019.0
20260906141846 72 132 0.0 2.0 0.00 0.00 0.00 87 1019.0
20260906141340 72 132 0.0 2.0 0.00 0.00 0.00 88 1019.0
20260906140835 72 146 0.0 2.0 0.00 0.00 0.00 88 1018.9
20260906140350 72 105 1.0 2.0 0.00 0.00 0.00 87 1018.9
20260906135824 72 98 0.0 2.0 0.00 0.00 0.00 88 1019.1
20260906135336 72 115 0.0 2.0 0.00 0.00 0.00 88 1018.9
20260906134829 71 115 0.0 2.0 0.00 0.00 0.00 88 1018.9
20260906134321 71 107 0.0 2.0 0.00 0.00 0.00 88 1018.9
20260906133817 71 114 0.0 2.0 0.00 0.00 0.00 88 1018.8
20260906133333 71 114 0.0 2.0 0.00 0.00 0.00 88 1018.7
20260906132829 71 192 1.0 2.0 0.00 0.00 0.00 88 1018.7
20260906132326 71 122 0.0 3.0 0.00 0.00 0.00 89 1018.7
20260906131842 71 128 0.0 4.0 0.00 0.00 0.00 89 1018.6
20260906131317 71 117 0.0 2.0 0.00 0.00 0.00 89 1018.6
20260906130827 71 131 0.0 2.0 0.00 0.00 0.00 89 1018.6
20260906130344 70 142 0.0 1.0 0.00 0.00 0.00 89 1018.8
20260906125817 70 143 0.0 0.0 0.00 0.00 0.00 89 1018.9
20260906125333 70 143 0.0 0.0 0.00 0.00 0.00 90 1018.9
20260906124828 70 143 0.0 0.0 0.00 0.00 0.00 90 1018.8
20260906124324 70 143 0.0 0.0 0.00 0.00 0.00 90 1018.9
20260906123819 70 143 0.0 0.0 0.00 0.00 0.00 89 1019.1
20260906123354 70 143 0.0 0.0 0.00 0.00 0.00 89 1019.1
20260906122827 70 143 0.0 0.0 0.00 0.00 0.00 89 1019.1
20260906122342 70 143 0.0 1.0 0.00 0.00 0.00 90 1019.0
20260906121817 70 143 0.0 1.0 0.00 0.00 0.00 90 1018.9
20260906121332 70 132 0.0 0.0 0.00 0.00 0.00 90 1018.8
20260906120827 70 182 0.0 0.0 0.00 0.00 0.00 90 1018.9
20260906120322 70 182 0.0 2.0 0.00 0.00 0.00 90 1018.8
20260906115819 70 182 0.0 2.0 0.00 0.00 0.00 90 1018.7
20260906115333 70 182 0.0 0.0 0.00 0.00 0.00 90 1018.7
20260906114848 70 182 0.0 1.0 0.00 0.00 0.00 90 1018.5
20260906114343 70 182 0.0 1.0 0.00 0.00 0.00 90 1018.3
20260906113857 69 182 0.0 1.0 0.00 0.00 0.00 90 1018.3
20260906113323 69 132 0.0 1.0 0.00 0.00 0.00 90 1018.1
20260906112817 69 132 0.0 1.0 0.00 0.00 0.00 90 1018.1
20260906112332 69 132 0.0 0.0 0.00 0.00 0.00 90 1018.0
20260906111826 69 132 0.0 0.0 0.00 0.00 0.00 90 1017.9
20260906111340 69 132 0.0 0.0 0.00 0.00 0.00 90 1017.8
20260906110833 69 132 0.0 3.0 0.00 0.00 0.00 90 1017.9
20260906110328 69 132 0.0 3.0 0.00 0.00 0.00 90 1017.9
20260906105822 69 140 0.0 0.0 0.00 0.00 0.00 90 1017.7
20260906105319 69 140 0.0 0.0 0.00 0.00 0.00 90 1017.7
20260906104853 69 140 0.0 1.0 0.00 0.00 0.00 90 1017.6
20260906104346 69 140 0.0 1.0 0.00 0.00 0.00 90 1017.6
20260906103821 69 140 0.0 0.0 0.00 0.00 0.00 90 1017.4
20260906103336 69 140 0.0 0.0 0.00 0.00 0.00 90 1017.3
20260906102830 69 140 0.0 0.0 0.00 0.00 0.00 90 1017.1
20260906102346 69 140 0.0 0.0 0.00 0.00 0.00 90 1017.1
20260906101822 69 140 0.0 1.0 0.00 0.00 0.00 90 1016.9
20260906101318 69 140 0.0 1.0 0.00 0.00 0.00 90 1016.9
20260906100833 69 140 0.0 2.0 0.00 0.00 0.00 90 1016.9
20260906100327 69 140 0.0 2.0 0.00 0.00 0.00 90 1017.0
20260906095822 69 140 0.0 1.0 0.00 0.00 0.00 90 1016.9
20260906095359 69 140 0.0 0.0 0.00 0.00 0.00 90 1017.0
20260906094830 69 140 0.0 0.0 0.00 0.00 0.00 90 1017.1
20260906094325 70 140 0.0 0.0 0.00 0.00 0.00 89 1017.1
20260906093820 70 140 0.0 0.0 0.00 0.00 0.00 89 1017.1
20260906093316 70 140 0.0 0.0 0.00 0.00 0.00 89 1017.2
20260906092827 70 140 0.0 0.0 0.00 0.00 0.00 89 1017.1
20260906092324 70 140 0.0 0.0 0.00 0.00 0.00 89 1017.0
20260906091819 70 140 0.0 0.0 0.00 0.00 0.00 89 1016.9
20260906091334 70 140 0.0 0.0 0.00 0.00 0.00 89 1016.9
20260906090829 70 140 0.0 0.0 0.00 0.00 0.00 89 1016.9
20260906090325 71 140 0.0 0.0 0.00 0.00 0.00 89 1017.0
20260906085840 71 140 0.0 0.0 0.00 0.00 0.00 89 1017.0
20260906085333 71 140 0.0 0.0 0.00 0.00 0.00 89 1017.0
20260906084826 71 140 0.0 0.0 0.00 0.00 0.00 89 1017.1
20260906084318 71 140 0.0 1.0 0.00 0.00 0.00 88 1017.0
20260906083832 71 140 0.0 1.0 0.00 0.00 0.00 88 1017.0
20260906083326 71 140 0.0 0.0 0.00 0.00 0.00 88 1017.0
20260906082822 71 140 0.0 0.0 0.00 0.00 0.00 88 1017.0
20260906082316 72 140 0.0 0.0 0.00 0.00 0.00 88 1017.1
20260906081832 72 140 0.0 1.0 0.00 0.00 0.00 88 1016.9
20260906081327 72 140 0.0 1.0 0.00 0.00 0.00 88 1016.9
20260906080842 72 140 0.0 1.0 0.00 0.00 0.00 88 1017.1
20260906080335 72 149 0.0 2.0 0.00 0.00 0.00 88 1016.9
20260906075826 72 138 0.0 1.0 0.00 0.00 0.00 88 1016.8
20260906075323 72 138 0.0 3.0 0.00 0.00 0.00 88 1016.7
20260906074836 73 138 0.0 3.0 0.00 0.00 0.00 88 1016.8
20260906074331 73 163 0.0 1.0 0.00 0.00 0.00 88 1016.8
20260906073844 73 163 0.0 1.0 0.00 0.00 0.00 88 1016.8
20260906073317 73 213 0.0 1.0 0.00 0.00 0.00 88 1016.9
20260906072832 73 213 0.0 1.0 0.00 0.00 0.00 88 1016.9
20260906072327 73 213 0.0 1.0 0.00 0.00 0.00 88 1017.0
20260906071822 73 213 0.0 2.0 0.00 0.00 0.00 88 1017.1
20260906071338 73 213 0.0 2.0 0.00 0.00 0.00 87 1017.2
20260906070826 73 198 0.0 1.0 0.00 0.00 0.00 87 1017.2
20260906070322 73 198 0.0 2.0 0.00 0.00 0.00 88 1017.2
20260906065817 74 198 0.0 2.0 0.00 0.00 0.00 87 1017.3
20260906065333 74 150 0.0 2.0 0.00 0.00 0.00 88 1017.1
20260906064828 74 170 0.0 4.0 0.00 0.00 0.00 88 1017.2
20260906064343 74 171 2.0 4.0 0.00 0.00 0.00 87 1017.3
20260906063817 74 149 0.0 2.0 0.00 0.00 0.00 88 1017.2
20260906063357 74 126 0.0 2.0 0.00 0.00 0.00 87 1017.2
20260906062831 74 151 0.0 1.0 0.00 0.00 0.00 87 1017.3
20260906062322 74 120 0.0 1.0 0.00 0.00 0.00 87 1017.2
20260906061817 74 146 0.0 2.0 0.00 0.00 0.00 87 1017.2
20260906061331 74 145 0.0 3.0 0.00 0.00 0.00 87 1017.3
20260906060826 74 135 0.0 3.0 0.00 0.00 0.00 87 1017.3
20260906060320 74 151 0.0 1.0 0.00 0.00 0.00 87 1017.2
20260906055818 74 151 0.0 1.0 0.00 0.00 0.00 87 1017.1
20260906055332 74 151 0.0 3.0 0.00 0.00 0.00 87 1017.0
20260906054847 74 151 0.0 3.0 0.00 0.00 0.00 87 1017.1
20260906054322 74 149 0.0 2.0 0.00 0.00 0.00 87 1017.1
20260906053839 74 149 0.0 2.0 0.00 0.00 0.00 87 1017.2
20260906053333 75 196 0.0 1.0 0.00 0.00 0.00 87 1017.1
20260906052826 75 196 0.0 1.0 0.00 0.00 0.00 87 1017.2
20260906052321 75 196 0.0 1.0 0.00 0.00 0.00 87 1017.1
20260906051832 75 196 0.0 1.0 0.00 0.00 0.00 87 1017.0
20260906051329 75 196 0.0 2.0 0.00 0.00 0.00 87 1017.0
20260906050824 75 196 0.0 3.0 0.00 0.00 0.00 87 1017.0
20260906050320 75 150 0.0 2.0 0.00 0.00 0.00 87 1017.0
20260906045829 75 185 0.0 2.0 0.00 0.00 0.00 87 1017.0
20260906045323 75 175 0.0 3.0 0.00 0.00 0.00 87 1016.9
20260906044817 75 171 1.0 3.0 0.00 0.00 0.00 87 1016.9
20260906044331 75 176 0.0 2.0 0.00 0.00 0.00 88 1016.8
20260906043826 75 160 0.0 2.0 0.00 0.00 0.00 88 1016.8
20260906043319 74 138 0.0 1.0 0.00 0.00 0.00 88 1016.6
20260906042854 74 138 0.0 1.0 0.00 0.00 0.00 88 1016.6
20260906042330 74 138 0.0 1.0 0.00 0.00 0.00 88 1016.4
20260906041842 74 138 0.0 0.0 0.00 0.00 0.00 88 1016.3
20260906041331 74 138 0.0 0.0 0.00 0.00 0.00 88 1016.1
20260906040827 74 138 0.0 0.0 0.00 0.00 0.00 88 1016.2
20260906040320 74 138 0.0 0.0 0.00 0.00 0.00 88 1016.1
20260906035836 75 138 0.0 0.0 0.00 0.00 0.00 88 1016.1
20260906035332 75 138 0.0 0.0 0.00 0.00 0.00 88 1016.0
20260906034826 75 138 0.0 0.0 0.00 0.00 0.00 87 1015.9
20260906034322 75 138 0.0 0.0 0.00 0.00 0.00 87 1016.0
20260906033903 75 138 0.0 0.0 0.00 0.00 0.00 87 1016.0
20260906033331 75 138 0.0 0.0 0.00 0.00 0.00 87 1016.0
20260906032823 75 138 0.0 0.0 0.00 0.00 0.00 88 1015.8
20260906032320 75 138 0.0 0.0 0.00 0.00 0.00 87 1015.8
20260906031835 75 138 0.0 0.0 0.00 0.00 0.00 87 1015.8
20260906031328 75 138 0.0 0.0 0.00 0.00 0.00 87 1015.8
20260906030841 75 138 0.0 0.0 0.00 0.00 0.00 87 1015.7
20260906030316 75 138 0.0 0.0 0.00 0.00 0.00 87 1015.5
20260906025832 75 138 0.0 0.0 0.00 0.00 0.00 87 1015.7
20260906025327 75 138 0.0 0.0 0.00 0.00 0.00 86 1015.8
20260906024823 75 138 0.0 0.0 0.00 0.00 0.00 86 1015.6
20260906024319 75 138 0.0 0.0 0.00 0.00 0.00 86 1015.5
20260906023850 75 138 0.0 0.0 0.00 0.00 0.00 86 1015.5
20260906023323 76 138 0.0 0.0 0.00 0.00 0.00 86 1015.5
20260906022818 76 138 0.0 0.0 0.00 0.00 0.00 85 1015.5
20260906022333 76 138 0.0 0.0 0.00 0.00 0.00 85 1015.5
20260906021826 76 138 0.0 0.0 0.00 0.00 0.00 85 1015.5
20260906021322 76 138 0.0 1.0 0.00 0.00 0.00 85 1015.4
20260906020819 76 138 0.0 1.0 0.00 0.00 0.00 85 1015.3
20260906020333 77 138 0.0 0.0 0.00 0.00 0.00 84 1015.3
20260906015828 77 138 0.0 0.0 0.00 0.00 0.00 84 1015.2
20260906015323 77 138 0.0 0.0 0.00 0.00 0.00 83 1015.1
20260906014817 77 138 0.0 0.0 0.00 0.00 0.00 83 1015.0
20260906014332 77 138 0.0 1.0 0.00 0.00 0.00 83 1015.0
20260906013827 78 138 0.0 1.0 0.00 0.00 0.00 83 1014.8
20260906013322 78 138 0.0 1.0 0.00 0.00 0.00 82 1014.8
20260906012818 78 138 0.0 1.0 0.00 0.00 0.00 82 1014.8
20260906012333 78 128 0.0 2.0 0.00 0.00 0.00 81 1014.8
20260906011828 78 121 1.0 3.0 0.00 0.00 0.00 81 1014.9
20260906011324 79 159 0.0 4.0 0.00 0.00 0.00 81 1014.8
20260906010819 79 157 0.0 2.0 0.00 0.00 0.00 81 1014.8
20260906010335 79 190 0.0 3.0 0.00 0.00 0.00 80 1014.9
20260906005830 79 190 0.0 5.0 0.00 0.00 0.00 80 1014.8
20260906005326 80 181 0.0 9.0 0.00 0.00 0.00 80 1014.8
20260906004843 80 189 1.0 9.0 0.00 0.00 0.00 79 1014.8
20260906004332 80 154 1.0 3.0 0.00 0.00 0.00 80 1014.8
20260906003827 80 246 0.0 4.0 0.00 0.00 0.00 80 1014.8
20260906003322 81 200 0.0 3.0 0.00 0.00 0.00 81 1014.8
20260906002817 81 200 0.0 3.0 0.00 0.00 0.00 80 1014.7
20260906002331 81 240 0.0 3.0 0.00 0.00 0.00 80 1014.6
20260906001823 81 202 0.0 3.0 0.00 0.00 0.00 80 1014.7
20260906001318 82 187 0.0 2.0 0.00 0.00 0.00 80 1014.6
20260906000832 82 103 0.0 2.0 0.00 0.00 0.00 79 1014.6
20260906000348 83 190 0.0 2.0 0.00 0.00 0.00 78 1014.6
20260905235820 83 197 1.0 3.0 0.00 0.00 0.00 77 1014.5
20260905235335 83 220 1.0 3.0 0.00 0.00 0.00 77 1014.4
20260905234827 84 148 1.0 4.0 0.00 0.00 0.00 77 1014.4
20260905234322 84 306 0.0 4.0 0.00 0.00 0.00 79 1014.4
20260905233855 85 217 0.0 3.0 0.00 0.00 0.00 78 1014.3
20260905233328 85 215 0.0 3.0 0.00 0.00 0.00 77 1014.3
20260905232824 85 215 0.0 3.0 0.00 0.00 0.00 78 1014.3
20260905232339 85 272 0.0 3.0 0.00 0.00 0.00 77 1014.2
20260905231832 86 221 0.0 6.0 0.00 0.00 0.00 77 1014.1
20260905231327 86 47 1.0 6.0 0.00 0.00 0.00 75 1014.1
20260905230841 86 227 0.0 3.0 0.00 0.00 0.00 76 1014.2
20260905230335 86 355 1.0 3.0 0.00 0.00 0.00 75 1014.0
20260905225831 87 286 0.0 2.0 0.00 0.00 0.00 75 1014.1
20260905225346 87 11 0.0 2.0 0.00 0.00 0.00 75 1014.0
20260905224818 87 215 1.0 2.0 0.00 0.00 0.00 75 1014.0
20260905224333 87 5 0.0 2.0 0.00 0.00 0.00 74 1014.0
20260905223827 88 5 0.0 3.0 0.00 0.00 0.00 75 1014.0
20260905223323 88 251 0.0 3.0 0.00 0.00 0.00 76 1013.9
20260905222817 88 344 1.0 6.0 0.00 0.00 0.00 75 1013.9
20260905222333 88 190 0.0 6.0 0.00 0.00 0.00 74 1013.7
20260905221827 89 247 0.0 4.0 0.00 0.00 0.00 75 1013.7
20260905221321 89 106 1.0 4.0 0.00 0.00 0.00 74 1013.7
20260905220817 89 336 0.0 2.0 0.00 0.00 0.00 74 1013.7
20260905220333 89 189 0.0 3.0 0.00 0.00 0.00 73 1013.8
20260905215828 89 113 0.0 3.0 0.00 0.00 0.00 73 1013.7
20260905215322 90 56 0.0 3.0 0.00 0.00 0.00 73 1013.7
20260905214817 90 232 0.0 2.0 0.00 0.00 0.00 74 1013.5
20260905214331 90 161 0.0 5.0 0.00 0.00 0.00 73 1013.5
20260905213824 90 276 0.0 5.0 0.00 0.00 0.00 72 1013.4
20260905213319 90 117 0.0 2.0 0.00 0.00 0.00 74 1013.4
20260905212836 90 184 0.0 2.0 0.00 0.00 0.00 73 1013.3
20260905212332 90 341 0.0 2.0 0.00 0.00 0.00 72 1013.4
20260905211827 90 219 0.0 2.0 0.00 0.00 0.00 70 1013.3
20260905211323 91 219 0.0 3.0 0.00 0.00 0.00 70 1013.4
20260905210840 91 325 0.0 4.0 0.00 0.00 0.00 68 1013.4
20260905210331 91 150 1.0 4.0 0.00 0.00 0.00 67 1013.3
20260905205824 91 278 0.0 2.0 0.00 0.00 0.00 70 1013.3
20260905205319 91 247 0.0 2.0 0.00 0.00 0.00 70 1013.4
20260905204833 92 264 0.0 2.0 0.00 0.00 0.00 68 1013.5
20260905204326 92 222 0.0 3.0 0.00 0.00 0.00 70 1013.5
20260905203822 92 161 0.0 3.0 0.00 0.00 0.00 71 1013.8
20260905203317 92 100 0.0 2.0 0.00 0.00 0.00 70 1013.8
20260905202853 92 231 0.0 1.0 0.00 0.00 0.00 68 1013.9
20260905202347 92 231 0.0 2.0 0.00 0.00 0.00 68 1013.8
20260905201821 92 360 0.0 2.0 0.00 0.00 0.00 67 1013.8
20260905201334 92 185 0.0 2.0 0.00 0.00 0.00 68 1013.7
20260905200849 92 171 0.0 2.0 0.00 0.00 0.00 70 1013.8
20260905200322 92 171 0.0 2.0 0.00 0.00 0.00 66 1013.8
20260905195817 93 209 0.0 4.0 0.00 0.00 0.00 68 1013.8
20260905195332 93 201 0.0 4.0 0.00 0.00 0.00 68 1013.8
20260905194849 93 201 0.0 1.0 0.00 0.00 0.00 68 1013.8
20260905194345 93 184 0.0 1.0 0.00 0.00 0.00 67 1013.9
20260905193819 93 184 0.0 2.0 0.00 0.00 0.00 68 1013.8
20260905193335 93 184 1.0 2.0 0.00 0.00 0.00 67 1013.9
20260905192829 92 164 0.0 1.0 0.00 0.00 0.00 67 1013.9
20260905192346 92 164 0.0 1.0 0.00 0.00 0.00 70 1014.0
20260905191817 92 164 0.0 0.0 0.00 0.00 0.00 69 1014.1
20260905191351 93 164 0.0 2.0 0.00 0.00 0.00 68 1014.2
20260905190826 93 164 0.0 3.0 0.00 0.00 0.00 68 1014.3
20260905190321 93 51 2.0 3.0 0.00 0.00 0.00 66 1014.3
20260905185835 93 217 0.0 1.0 0.00 0.00 0.00 67 1014.3
20260905185351 92 217 0.0 2.0 0.00 0.00 0.00 69 1014.3
20260905184825 92 217 0.0 2.0 0.00 0.00 0.00 70 1014.3
20260905184320 92 235 0.0 1.0 0.00 0.00 0.00 70 1014.4
20260905183834 92 209 0.0 1.0 0.00 0.00 0.00 68 1014.5
20260905183329 92 209 0.0 1.0 0.00 0.00 0.00 67 1014.4
20260905182823 92 209 0.0 2.0 0.00 0.00 0.00 67 1014.4
20260905182318 92 138 0.0 2.0 0.00 0.00 0.00 67 1014.4
20260905181833 92 261 0.0 1.0 0.00 0.00 0.00 69 1014.5
20260905181348 92 308 0.0 1.0 0.00 0.00 0.00 67 1014.5
20260905180821 92 308 0.0 1.0 0.00 0.00 0.00 68 1014.5
20260905180335 92 308 0.0 1.0 0.00 0.00 0.00 69 1014.6
20260905175827 92 282 0.0 1.0 0.00 0.00 0.00 69 1014.6
20260905175342 92 282 0.0 1.0 0.00 0.00 0.00 68 1014.6
20260905174835 92 282 0.0 1.0 0.00 0.00 0.00 70 1014.6
20260905174329 91 207 0.0 1.0 0.00 0.00 0.00 69 1014.7
20260905173824 91 207 0.0 1.0 0.00 0.00 0.00 72 1014.8
20260905173319 91 116 0.0 1.0 0.00 0.00 0.00 70 1014.8
20260905172836 92 116 0.0 1.0 0.00 0.00 0.00 69 1014.7
20260905172347 92 116 0.0 2.0 0.00 0.00 0.00 69 1014.7
20260905171822 92 220 0.0 2.0 0.00 0.00 0.00 69 1014.8
20260905171318 92 98 0.0 2.0 0.00 0.00 0.00 66 1015.0
20260905170852 92 109 1.0 2.0 0.00 0.00 0.00 66 1015.0
20260905170346 92 172 0.0 2.0 0.00 0.00 0.00 68 1015.0
20260905165834 92 253 0.0 3.0 0.00 0.00 0.00 70 1015.0
20260905165328 92 253 0.0 3.0 0.00 0.00 0.00 68 1015.0
20260905164823 92 100 0.0 2.0 0.00 0.00 0.00 70 1015.0
20260905164317 91 153 0.0 2.0 0.00 0.00 0.00 70 1015.0
20260905163831 91 189 0.0 3.0 0.00 0.00 0.00 72 1015.0
20260905163325 91 162 0.0 2.0 0.00 0.00 0.00 72 1014.9
20260905162818 90 162 0.0 2.0 0.00 0.00 0.00 71 1014.9
20260905162331 90 162 0.0 5.0 0.00 0.00 0.00 73 1014.9
20260905161825 90 162 2.0 5.0 0.00 0.00 0.00 71 1014.8
20260905161318 90 96 0.0 3.0 0.00 0.00 0.00 72 1014.8
20260905160831 90 138 1.0 3.0 0.00 0.00 0.00 72 1014.8
20260905160326 89 123 0.0 1.0 0.00 0.00 0.00 75 1014.8
20260905155841 89 123 0.0 1.0 0.00 0.00 0.00 75 1014.8
20260905155336 88 149 0.0 2.0 0.00 0.00 0.00 77 1014.8
20260905154831 88 149 0.0 3.0 0.00 0.00 0.00 75 1014.8
20260905154345 88 36 0.0 3.0 0.00 0.00 0.00 78 1014.8
20260905153818 88 182 0.0 2.0 0.00 0.00 0.00 76 1014.8
20260905153333 87 182 0.0 3.0 0.00 0.00 0.00 78 1014.7
20260905152828 87 130 1.0 3.0 0.00 0.00 0.00 77 1014.8
20260905152322 87 146 1.0 3.0 0.00 0.00 0.00 78 1014.9
20260905151818 86 217 0.0 1.0 0.00 0.00 0.00 79 1014.7
20260905151333 86 217 0.0 0.0 0.00 0.00 0.00 82 1014.7
20260905150830 85 217 0.0 1.0 0.00 0.00 0.00 82 1014.7
20260905150324 85 251 0.0 3.0 0.00 0.00 0.00 82 1014.6
20260905145820 84 254 0.0 1.0 0.00 0.00 0.00 82 1014.6
20260905145331 84 254 0.0 1.0 0.00 0.00 0.00 83 1014.6
20260905144826 83 211 0.0 1.0 0.00 0.00 0.00 84 1014.6
20260905144320 83 305 0.0 1.0 0.00 0.00 0.00 84 1014.6